CZ-3A DEB, 35552

Orbit data source: Space-Track

CZ-3A DEB, 35552 is space debris in HEO originally from a launch on Fri, 02 Feb 2007 UTC launched from the Xichang Space Center, China (XSC). Debris objects in space refer to the collection of defunct objects orbiting the Earth. Examples of debris include non-operational satellites, rocket bodies, and fragments generated from explosions, collisions, or faulty payload assembly.

Loading next visibility...
Identifier
35552, 2007-003L
Orbit
HEO
Country
Flag of CNCN / PRC
Related business
Manufacturer
Unknown
Mission
Spacecraft
Bus & Motor
Unknown
Mass
Unknown
Launch date (UTC)
2007-02-02 (19 years ago)
Launch vehicle
Unknown
Launch site
Xichang Space Center, China (XSC)
Object type
Payload
Rocket body
Debris
Shape & HBR
Unknown shape, 0.3 m
Radar Cross Section
Medium (>0.1 m² and <1 m²)

Expand to show TLE details & history
Last TLE update: 2 days ago

TLE from 2 days ago
0 CZ-3A DEB
1 35552U 07003L   26124.85098299  .00000402  00000-0  36999-2 0  9999
2 35552  25.8594  69.9861 7411978 105.4088 340.5797  2.02760896129655
Epoch: 2026-05-04T20:25Z
TLE epoch observation values (Epoch: 2026-05-04T20:25:24.930Z)
Latitude
0.00003°
Longitude
-99.24282°
Altitude
8,470.374 km
Speed
6.21 km/s
True Right ascension
04h 39m 22s
True Declination
0° 00' 00"
Sunlit
Object was in daylight at epoch
Visualization orbit readout
Latitude
Unknown
Longitude
Unknown
Altitude
Unknown
Speed
Unknown
Apparent Right ascension
Unknown
Apparent Declination
Unknown
Sunlit
N/A
Visualization observer readout
Local Sidereal Time
16:34:25
Azimuth
Unknown
Elevation
Unknown
Doppler factor
Unknown
Orbital elements
Apogee altitude
39,540.862 km
Perigee altitude
447.014 km
Semi-major axis
26,372.075 km
Eccentricity
0.7412
Inclination
25.8594°
RAAN
69.9861°
Arg. of periapsis
105.4088°
True anomaly
254.69883°
Mean anomaly
340.5797°
Eccentric anomaly
306.39619°
Mean motion
0.50679 °/min
Orbital period
710.36 mins
BSTAR
0.0036999
Loading maneuver chart data...
Computing Atmospheric mass density...
Loading historical data...
Loading historical data...
Loading historical data...
Loading historical data...
Loading historical data...
Loading historical data...
Loading historical data...

Documentation

Showing up to 5 results
|